Home > Weather > MD of Lunenburg > Past weeks

Flag for Canada Past Weather in MD of Lunenburg, Nova Scotia, Canada — Yesterday and Last 2 Weeks

Now
54 °F

Cool.


Feels Like: 54 °F
Forecast: 47 / 74 °F
Wind: 3 mph from North

Location: McNabs Island - AUT

Current Time: Jun 25, 2016 at 7:44:39 AM

Latest Report: Jun 25, 2016 at 7:00 AM


Visibility: N/A

Pressure: 30.21 "Hg

Humidity: 87%

Dew Point: 51 °F

Location of MD of LunenburgLocation

Past Weather in MD of Lunenburg — Graph

°F

MD of Lunenburg Temperature Yesterday

Maximum temperature yesterday: 70 °F (at 5:00 PM)
Minimum temperature yesterday: 51 °F (at 5:00 AM)
Average temperature yesterday: 61 °F

High & Low Weather Summary for the Past Weeks

 TemperatureHumidityPressure
High74 °F (Jun 18, 3:00 PM)100% (Jun 23, 2:00 AM)30.28 "Hg (Jun 23, 2:00 AM)
Low46 °F (Jun 17, 5:00 AM)28% (Jun 18, 3:00 PM)29.38 "Hg (Jun 13, 5:00 AM)
Average56 °F75%29.82 "Hg
* Reported Jun 10 6:00 AM — Jun 25 6:00 AM, MD of Lunenburg, Weather by CustomWeather, © 2016

Note: Actual official high and low records may vary slightly from our data, if they occured in-between our weather recording intervals... More about our weather records

Advertising

MD of Lunenburg Weather History for the Previous 24 Hours

Scroll right to see more
 ConditionsComfort  
Time TempWeatherWind HumidityBarometerVisibility
6:00 AM
Sat, Jun 25
54 °FCool.3 mph84%30.20 "HgN/A
5:00 AM52 °FCool.1 mph85%30.19 "HgN/A
4:00 AM56 °FCool.2 mph71%30.18 "HgN/A
3:00 AM52 °FCool.No wind87%30.17 "HgN/A
2:00 AM55 °FCool.No wind73%30.16 "HgN/A
1:00 AM56 °FCool.3 mph73%30.15 "HgN/A
12:00 AM60 °FRefreshingly cool.5 mph60%30.14 "HgN/A
11:00 PM
Fri, Jun 24
61 °FRefreshingly cool.3 mph58%30.12 "HgN/A
10:00 PM64 °FMild.6 mph47%30.10 "HgN/A
9:00 PM65 °FMild.2 mph47%30.08 "HgN/A
8:00 PM67 °FMild.2 mph53%30.06 "HgN/A
7:00 PM67 °FMild.6 mph57%30.03 "HgN/A
6:00 PM67 °FMild.14 mph52%30.01 "HgN/A
5:00 PM70 °FMild.16 mph51%30.00 "HgN/A
4:00 PM66 °FMild.7 mph65%29.99 "HgN/A
3:00 PM60 °FCool.8 mph80%29.98 "HgN/A
2:00 PM59 °FCool.7 mph79%29.97 "HgN/A
1:00 PM61 °FCool.2 mph72%29.96 "HgN/A
12:00 PM62 °FCool.10 mph72%29.95 "HgN/A
11:00 AM70 °FMild.3 mph51%29.93 "HgN/A
10:00 AM67 °FMild.6 mph57%29.93 "HgN/A
9:00 AM62 °FCool.5 mph66%29.93 "HgN/A
8:00 AM58 °FCool.2 mph75%29.92 "HgN/A
7:00 AM54 °FCool.3 mph85%29.90 "HgN/A
Weather by CustomWeather, © 2016

See weather overviewHow to use our weather pages